Weather History for Auburn, IN

Change the Weather History Date:

Wednesday, January 1, 2014

  Actual Average (KFWA) Record (KFWA)
Temperature  
Mean Temperature 18 °F 26 °F  
Max Temperature 21 °F 33 °F 60 °F (1985)
Min Temperature 15 °F 18 °F -13 °F (1968)
Degree Days  
Heating Degree Days 47 39  
Month to date heating degree days 39  
Since 1 July heating degree days 2367  
Cooling Degree Days 0 0  
Month to date cooling degree days 0  
Year to date cooling degree days 0  
Moisture  
Dew Point 13 °F    
Average Humidity 81    
Maximum Humidity 86    
Minimum Humidity 74    
Precipitation  
Precipitation 0.00 in 0.08 in 1.41 in (1948)
Month to date precipitation 0.08  
Year to date precipitation 0.08  
Snow  
Snow 0.00 in 0.30 in 5.30 in (1918)
Month to date snowfall 0.3  
Since 1 July snowfall 10.9  
Snow Depth -    
Sea Level Pressure  
Sea Level Pressure 30.23 in    
Wind  
Wind Speed 7 mph (ENE)    
Max Wind Speed 16 mph    
Max Gust Speed 24 mph    
Visibility 4 miles    
Events Snow    
T = Trace of Precipitation, MM = Missing Value Source: NWS Daily Summary

Daily Weather History Graph

Daily Weather History Graph

Search for Another Location

Airport:

Trip Planner

Search our weather history database for the weather conditions in past years. The results will help you decide how hot, cold, wet, or windy it might be!

Date:

Astronomy

Jan. 01, 2014 Rise Set
Actual Time 8:06 AM EST 5:21 PM EST
Civil Twilight 7:35 AM EST 5:52 PM EST
Nautical Twilight 7:00 AM EST 6:27 PM EST
Astronomical Twilight 6:26 AM EST 7:01 PM EST
Moon 7:55 AM EST (1/1) 6:06 PM EST (1/1)
Length of Visible Light 10h 17m
Length of Day
9h 15m
New Moon, 0% of the Moon is Illuminated
Jan 1
New Moon
Jan 7
First Quarter
Jan 15
Full
Jan 24
Last Quarter
Jan 30
New

Hourly Weather History & Observations

Time (EST) Temp. Windchill Dew Point Humidity Pressure Visibility Wind Dir Wind Speed Gust Speed Precip Events Conditions
12:15 AM 17.6 °F - 14.0 °F 86% 30.29 in 1.8 mi Calm Calm - N/A Snow Light Snow
12:35 AM 19.4 °F 14.3 °F 14.0 °F 80% 30.28 in 2.0 mi NNE 3.5 mph - N/A Snow Light Snow
12:55 AM 17.6 °F 12.3 °F 14.0 °F 86% 30.28 in 3.0 mi NE 3.5 mph - N/A Snow Light Snow
1:15 AM 19.4 °F 14.3 °F 14.0 °F 80% 30.27 in 4.0 mi ENE 3.5 mph - N/A Snow Light Snow
1:35 AM 19.4 °F 12.8 °F 14.0 °F 80% 30.27 in 4.0 mi East 4.6 mph - N/A Snow Light Snow
1:55 AM 17.6 °F 12.3 °F 14.0 °F 86% 30.27 in 5.0 mi East 3.5 mph - N/A Snow Light Snow
2:15 AM 19.4 °F - 14.0 °F 80% 30.27 in 7.0 mi Calm Calm - N/A Snow Light Snow
2:35 AM 19.4 °F 14.3 °F 14.0 °F 80% 30.27 in 4.0 mi ESE 3.5 mph - N/A Snow Light Snow
2:55 AM 19.4 °F - 14.0 °F 80% 30.27 in 4.0 mi Calm Calm - N/A Snow Light Snow
3:15 AM 19.4 °F 14.3 °F 14.0 °F 80% 30.28 in 3.0 mi East 3.5 mph - N/A Snow Light Snow
3:35 AM 19.4 °F 14.3 °F 14.0 °F 80% 30.28 in 2.0 mi East 3.5 mph - N/A Snow Light Snow
3:55 AM 19.4 °F 14.3 °F 14.0 °F 80% 30.27 in 3.0 mi ESE 3.5 mph - N/A Snow Light Snow
4:15 AM 19.4 °F 14.3 °F 14.0 °F 80% 30.27 in 2.5 mi ESE 3.5 mph - N/A Snow Light Snow
4:35 AM 19.4 °F 12.8 °F 14.0 °F 80% 30.26 in 2.5 mi East 4.6 mph - N/A Snow Light Snow
4:55 AM 19.4 °F 11.5 °F 14.0 °F 80% 30.26 in 2.5 mi East 5.8 mph - N/A Snow Light Snow
5:15 AM 19.4 °F 14.3 °F 14.0 °F 80% 30.26 in 2.5 mi East 3.5 mph - N/A Snow Light Snow
5:35 AM 19.4 °F 12.8 °F 14.0 °F 80% 30.26 in 3.0 mi East 4.6 mph - N/A Snow Light Snow
5:55 AM 19.4 °F 11.5 °F 14.0 °F 80% 30.25 in 3.0 mi East 5.8 mph - N/A Snow Light Snow
6:15 AM 19.4 °F 10.4 °F 14.0 °F 80% 30.26 in 2.0 mi East 6.9 mph - N/A Snow Light Snow
6:35 AM 19.4 °F 10.4 °F 14.0 °F 80% 30.27 in 2.0 mi East 6.9 mph - N/A Snow Light Snow
6:55 AM 19.4 °F 10.4 °F 14.0 °F 80% 30.26 in 1.8 mi East 6.9 mph - N/A Snow Light Snow
7:15 AM 19.4 °F 11.5 °F 14.0 °F 80% 30.26 in 2.0 mi East 5.8 mph - N/A Snow Light Snow
7:35 AM 19.4 °F 11.5 °F 14.0 °F 80% 30.26 in 1.2 mi ENE 5.8 mph - N/A Snow Light Snow
7:55 AM 19.4 °F 10.4 °F 14.0 °F 80% 30.26 in 1.2 mi ENE 6.9 mph - N/A Snow Light Snow
8:15 AM 19.4 °F 10.4 °F 14.0 °F 80% 30.26 in 1.0 mi ENE 6.9 mph - N/A Snow Snow
8:35 AM 19.4 °F 9.5 °F 14.0 °F 80% 30.26 in 1.5 mi ENE 8.1 mph - N/A Snow Light Snow
8:55 AM 19.4 °F 10.4 °F 14.0 °F 80% 30.26 in 3.0 mi ENE 6.9 mph - N/A Snow Light Snow
9:15 AM 19.4 °F 8.6 °F 14.0 °F 80% 30.27 in 5.0 mi ENE 9.2 mph - N/A Snow Light Snow
9:35 AM 19.4 °F 9.5 °F 14.0 °F 80% 30.27 in 7.0 mi ENE 8.1 mph - N/A   Overcast
9:55 AM 19.4 °F 7.2 °F 14.0 °F 80% 30.27 in 5.0 mi ENE 11.5 mph - N/A Snow Light Snow
10:15 AM 19.4 °F 7.2 °F 14.0 °F 80% 30.28 in 7.0 mi East 11.5 mph - N/A   Mostly Cloudy
10:35 AM 21.2 °F 8.9 °F 14.0 °F 74% 30.27 in 10.0 mi ENE 12.7 mph 19.6 mph N/A Snow Light Snow
10:55 AM 21.2 °F 8.9 °F 14.0 °F 74% 30.27 in 10.0 mi ENE 12.7 mph 17.3 mph N/A   Overcast
11:15 AM 21.2 °F 9.5 °F 14.0 °F 74% 30.27 in 10.0 mi ENE 11.5 mph - N/A   Overcast
11:35 AM 21.2 °F 7.8 °F 14.0 °F 74% 30.27 in 10.0 mi ENE 15.0 mph - N/A   Overcast
11:55 AM 21.2 °F 8.3 °F 14.0 °F 74% 30.25 in 10.0 mi ENE 13.8 mph 18.4 mph N/A   Overcast
12:15 PM 21.2 °F 10.1 °F 14.0 °F 74% 30.24 in 10.0 mi ENE 10.4 mph - N/A   Overcast
12:35 PM 19.4 °F 6.6 °F 14.0 °F 80% 30.24 in 10.0 mi ENE 12.7 mph - N/A   Overcast
12:55 PM 19.4 °F 5.5 °F 14.0 °F 80% 30.23 in 10.0 mi ENE 15.0 mph - N/A   Overcast
1:15 PM 19.4 °F 5.5 °F 14.0 °F 80% 30.21 in 10.0 mi ENE 15.0 mph - N/A   Overcast
1:35 PM 19.4 °F 6.6 °F 14.0 °F 80% 30.21 in 10.0 mi NE 12.7 mph 17.3 mph N/A   Overcast
1:55 PM 19.4 °F 7.2 °F 14.0 °F 80% 30.20 in 10.0 mi NE 11.5 mph - N/A   Overcast
2:15 PM 19.4 °F 6.6 °F 14.0 °F 80% 30.20 in 10.0 mi ENE 12.7 mph - N/A   Overcast
2:35 PM 19.4 °F 6.0 °F 14.0 °F 80% 30.20 in 10.0 mi NE 13.8 mph - N/A   Overcast
2:55 PM 19.4 °F 7.2 °F 14.0 °F 80% 30.20 in 7.0 mi ENE 11.5 mph - N/A   Overcast
3:15 PM 19.4 °F 7.2 °F 14.0 °F 80% 30.20 in 4.0 mi ENE 11.5 mph 16.1 mph N/A Snow Light Snow
3:35 PM 19.4 °F 7.9 °F 14.0 °F 80% 30.20 in 1.2 mi ENE 10.4 mph - N/A Snow Light Snow
3:55 PM 17.6 °F 5.7 °F 14.0 °F 86% 30.20 in 0.8 mi ENE 10.4 mph - N/A Snow Light Snow
4:15 PM 17.6 °F 4.3 °F 14.0 °F 86% 30.19 in 0.8 mi ENE 12.7 mph 17.3 mph N/A Snow Light Snow
4:35 PM 17.6 °F 4.3 °F 12.2 °F 79% 30.19 in 1.0 mi ENE 12.7 mph - N/A Snow Light Snow
4:55 PM 17.6 °F 5.0 °F 12.2 °F 79% 30.19 in 1.5 mi NE 11.5 mph 19.6 mph N/A Snow Light Snow
5:15 PM 17.6 °F 3.2 °F 12.2 °F 79% 30.19 in 1.0 mi ENE 15.0 mph 18.4 mph N/A Snow Light Snow
5:35 PM 15.8 °F 2.1 °F 12.2 °F 86% 30.19 in 2.0 mi ENE 12.7 mph - N/A Snow Light Snow
5:55 PM 15.8 °F 2.7 °F 12.2 °F 86% 30.19 in 2.0 mi ENE 11.5 mph - N/A Snow Light Snow
6:15 PM 15.8 °F 4.2 °F 12.2 °F 86% 30.19 in 1.8 mi ENE 9.2 mph - N/A Snow Light Snow
6:35 PM 15.8 °F 0.3 °F 10.4 °F 79% 30.19 in 2.0 mi ENE 16.1 mph 24.2 mph N/A Snow Light Snow
6:55 PM 15.8 °F 0.3 °F 10.4 °F 79% 30.19 in 2.5 mi ENE 16.1 mph 19.6 mph N/A Snow Light Snow
7:15 PM 15.8 °F 2.1 °F 10.4 °F 79% 30.20 in 2.5 mi ENE 12.7 mph - N/A Snow Light Snow
7:35 PM 15.8 °F 2.7 °F 10.4 °F 79% 30.19 in 2.5 mi NE 11.5 mph - N/A Snow Light Snow
7:55 PM 15.8 °F 0.9 °F 10.4 °F 79% 30.18 in 1.8 mi ENE 15.0 mph 20.7 mph N/A Snow Light Snow
8:15 PM 15.8 °F 2.1 °F 10.4 °F 79% 30.18 in 2.5 mi ENE 12.7 mph 17.3 mph N/A Snow Light Snow
8:35 PM 15.8 °F 4.2 °F 10.4 °F 79% 30.17 in 2.5 mi ENE 9.2 mph - N/A Snow Light Snow
8:55 PM 15.8 °F 2.7 °F 10.4 °F 79% 30.17 in 2.0 mi ENE 11.5 mph - N/A Snow Light Snow
9:15 PM 15.8 °F 2.7 °F 12.2 °F 86% 30.16 in 1.8 mi ENE 11.5 mph - N/A Snow Light Snow
9:35 PM 15.8 °F 3.4 °F 12.2 °F 86% 30.16 in 1.8 mi ENE 10.4 mph - N/A Snow Light Snow
9:55 PM 15.8 °F 2.7 °F 12.2 °F 86% 30.15 in 2.5 mi ENE 11.5 mph 17.3 mph N/A Snow Light Snow
10:15 PM 15.8 °F 4.2 °F 12.2 °F 86% 30.14 in 2.0 mi NE 9.2 mph - N/A Snow Light Snow
10:35 PM 15.8 °F 2.7 °F 12.2 °F 86% 30.14 in 3.0 mi NE 11.5 mph - N/A Snow Light Snow
10:55 PM 15.8 °F 4.2 °F 12.2 °F 86% 30.13 in 3.0 mi NE 9.2 mph - N/A Snow Light Snow
11:15 PM 15.8 °F 2.7 °F 12.2 °F 86% 30.13 in 4.0 mi NE 11.5 mph - N/A Snow Light Snow
11:35 PM 17.6 °F 4.3 °F 12.2 °F 79% 30.12 in 3.0 mi NE 12.7 mph 17.3 mph N/A Snow Light Snow
11:55 PM 17.6 °F 5.0 °F 12.2 °F 79% 30.12 in 4.0 mi NE 11.5 mph - N/A Snow Light Snow